Location: Unspecified
(0.0000°N, 0.0000°E)
Time: 07:43:18
(UTC+00:00)

HuskySat-1 - Pass Details

Date: 28 October 2021
Orbit: 443 x 456 km, 51.6° (Epoch: 01 December)

Event Time Altitude Azimuth Distance (km) Brightness Sun altitude
Rises 05:08:39 0° 225° (SW) 2,441 ? -8.6°
Reaches altitude 10° 05:10:50 10° 231° (SW) 1,565 ? -8.0°
Maximum altitude 05:14:14 46° 305° (NW) 600 ? -7.2°
Drops below altitude 10° 05:17:36 10° 20° (NNE) 1,551 ? -6.4°
Sets 05:19:45 0° 26° (NNE) 2,416 ? -5.9°
